Weather History for KLNK - May, 2013

Change the Weather History Date:

Wednesday, May 22, 2013

  Actual Average Record
Temperature  
Mean Temperature 56 °F 64 °F  
Max Temperature 62 °F 76 °F 96 °F (1925)
Min Temperature 50 °F 53 °F 36 °F (1963)
Degree Days  
Heating Degree Days 9 3  
Month to date heating degree days 180 127  
Since 1 July heating degree days 6301 6020  
Cooling Degree Days 0 3  
Month to date cooling degree days 45 34  
Year to date cooling degree days 49 48  
Growing Degree Days 6 (Base 50)    
Moisture  
Dew Point 47 °F    
Average Humidity 73    
Maximum Humidity 86    
Minimum Humidity 60    
Precipitation  
Precipitation T in 0.14 in 2.43 in (1965)
Month to date precipitation 2.45 3.06  
Year to date precipitation 9.86 9.11  
Snow  
Snow 0.00 in 0.00 in - ()
Month to date snowfall 2.7 0.1  
Since 1 July snowfall 27.5 26.0  
Snow Depth 0.00 in    
Sea Level Pressure  
Sea Level Pressure 29.85 in    
Wind  
Wind Speed 13 mph (NW)    
Max Wind Speed 22 mph    
Max Gust Speed 26 mph    
Visibility 9 miles    
Events Rain    
T = Trace of Precipitation, MM = Missing Value Source: NWS Daily Summary

Daily Weather History Graph

Daily Weather History Graph

Search for Another Location

Airport or City:

Trip Planner

Search our weather history database for the weather conditions in past years. The results will help you decide how hot, cold, wet, or windy it might be!

Date:

Astronomy

May. 22, 2013 Rise Set
Actual Time 6:03 AM CDT 8:44 PM CDT
Civil Twilight 5:31 AM CDT 9:16 PM CDT
Nautical Twilight 4:51 AM CDT 9:56 PM CDT
Astronomical Twilight 4:06 AM CDT 10:42 PM CDT
Moon 6:07 PM CDT (5/22) 4:09 AM CDT (5/22)
Length of Visible Light 15h 44m
Length of Day
14h 41m
Waxing Gibbous, 91% of the Moon is Illuminated
May 22
Waxing Gibbous
May 24
Full
May 31
Last Quarter
Jun 8
New
Jun 16
First Quarter

Hourly Weather History & Observations

Time (CDT) Temp. Dew Point Humidity Pressure Visibility Wind Dir Wind Speed Gust Speed Precip Events Conditions
12:54 AM 54.0 °F 46.0 °F 75% 29.78 in 10.0 mi NNW 9.2 mph - N/A   Overcast
1:54 AM 53.1 °F 46.0 °F 77% 29.79 in 10.0 mi NW 9.2 mph - N/A   Overcast
2:27 AM 51.8 °F 46.4 °F 82% 29.80 in 10.0 mi NW 11.5 mph - N/A   Overcast
2:54 AM 52.0 °F 46.0 °F 80% 29.79 in 10.0 mi WNW 13.8 mph - N/A   Overcast
3:39 AM 51.8 °F 46.4 °F 82% 29.79 in 10.0 mi WNW 12.7 mph - N/A   Overcast
3:54 AM 50.0 °F 46.9 °F 89% 29.78 in 10.0 mi WNW 10.4 mph - N/A   Overcast
4:29 AM 51.8 °F 46.4 °F 82% 29.78 in 10.0 mi WNW 10.4 mph - N/A   Overcast
4:54 AM 50.0 °F 46.0 °F 86% 29.78 in 10.0 mi WNW 11.5 mph - N/A   Mostly Cloudy
5:40 AM 51.8 °F 46.4 °F 82% 29.78 in 10.0 mi NW 16.1 mph 23.0 mph N/A   Overcast
5:54 AM 50.0 °F 46.0 °F 86% 29.78 in 10.0 mi WNW 12.7 mph - N/A   Overcast
6:54 AM 51.1 °F 46.0 °F 83% 29.78 in 10.0 mi NW 15.0 mph 23.0 mph N/A   Overcast
7:54 AM 52.0 °F 46.9 °F 83% 29.80 in 10.0 mi WNW 15.0 mph - N/A   Overcast
8:22 AM 51.8 °F 46.4 °F 82% 29.82 in 10.0 mi WNW 13.8 mph - N/A   Overcast
8:52 AM 53.6 °F 46.4 °F 77% 29.82 in 10.0 mi NW 18.4 mph - N/A   Overcast
8:54 AM 53.1 °F 46.9 °F 80% 29.82 in 10.0 mi NW 17.3 mph 24.2 mph N/A   Overcast
9:54 AM 55.0 °F 46.9 °F 74% 29.83 in 10.0 mi NW 16.1 mph 23.0 mph N/A   Overcast
10:18 AM 55.4 °F 46.4 °F 72% 29.85 in 10.0 mi WNW 13.8 mph - N/A   Overcast
10:54 AM 55.9 °F 46.9 °F 72% 29.85 in 10.0 mi NW 12.7 mph - N/A   Overcast
11:50 AM 53.6 °F 51.8 °F 94% 29.88 in 2.5 mi WNW 15.0 mph - 0.00 in Rain Light Rain
11:54 AM 53.1 °F 51.1 °F 93% 29.88 in 2.5 mi WNW 12.7 mph - 0.00 in Rain Light Rain
11:56 AM 53.6 °F 51.8 °F 94% 29.88 in 3.0 mi WNW 13.8 mph - 0.00 in Rain Light Rain
12:03 PM 53.6 °F 51.8 °F 94% 29.88 in 5.0 mi NW 10.4 mph - 0.00 in Rain Light Rain
12:54 PM 55.9 °F 48.0 °F 75% 29.88 in 10.0 mi NW 16.1 mph 19.6 mph 0.00 in   Overcast
1:43 PM 59.0 °F 46.4 °F 63% 29.86 in 10.0 mi NW 17.3 mph 21.9 mph N/A   Overcast
1:54 PM 59.0 °F 46.9 °F 64% 29.86 in 10.0 mi NW 16.1 mph - N/A   Overcast
2:54 PM 61.0 °F 48.0 °F 62% 29.86 in 10.0 mi NW 15.0 mph 21.9 mph N/A   Overcast
3:04 PM 60.8 °F 48.2 °F 63% 29.87 in 10.0 mi WNW 16.1 mph - N/A   Overcast
3:54 PM 61.0 °F 46.9 °F 60% 29.86 in 10.0 mi NNW 18.4 mph - N/A   Overcast
4:54 PM 61.0 °F 46.9 °F 60% 29.87 in 10.0 mi NNW 13.8 mph - N/A   Overcast
5:54 PM 61.0 °F 46.9 °F 60% 29.89 in 10.0 mi NW 12.7 mph - N/A   Overcast
6:54 PM 60.1 °F 46.9 °F 62% 29.90 in 10.0 mi NNW 12.7 mph - N/A   Overcast
7:54 PM 60.1 °F 48.0 °F 64% 29.92 in 10.0 mi NW 10.4 mph - N/A   Overcast
8:54 PM 57.0 °F 48.9 °F 74% 29.95 in 10.0 mi North 12.7 mph - N/A   Overcast
9:54 PM 57.0 °F 46.9 °F 69% 29.97 in 10.0 mi NNW 13.8 mph - N/A   Overcast
10:54 PM 55.9 °F 48.0 °F 75% 30.00 in 10.0 mi NW 6.9 mph - N/A   Overcast
11:34 PM 55.4 °F 48.2 °F 77% 30.01 in 10.0 mi NNW 9.2 mph - N/A   Overcast
11:54 PM 55.0 °F 48.0 °F 77% 30.02 in 10.0 mi NW 8.1 mph - N/A   Overcast